Regional Weather Roundup
Issued by NWS

Home | Current Version | Previous Version | Text Only | Print | Product List | Glossary On
Versions: 1 2 3 4 5 6 7 8 9 10 11 12 13 14 15 16 17 18 19 20 21 22 23 24 25 26 27 28 29 30 31 32 33 34 35 36 37 38 39 40 41 42 43 44 45 46 47 48 49 50
000
ASUS44 KLIX 221410
RWRLA
LOUISIANA WEATHER ROUNDUP
NATIONAL WEATHER SERVICE NEW ORLEANS LA
800 AM CST SAT NOV 22 2014

NOTE: "FAIR" INDICATES FEW OR NO CLOUDS BELOW 12,000 FEET WITH NO
      SIGNIFICANT WEATHER AND/OR OBSTRUCTIONS TO VISIBILITY.
      SKY/WX - SKY CONDITION AND SIGNIFICANT WEATHER.
      TMP - AIR TEMPERATURE.    DP   - DEWPOINT TEMPERATURE.
      RH  - RELATIVE HUMIDITY.  PRES - PRESSURE.
      HX  - HEAT INDEX.         WCI  - WIND CHILL INDEX.

*  THESE STATIONS ARE NOT NWS OR FAA STATIONS AND ARE NOT UNDER
   NWS QUALITY CONTROL.

LAZ040-048-061>063-065-066-069-221500-
SOUTHEAST LOUISIANA

CITY           SKY/WX    TMP DP  RH WIND       PRES   REMARKS
N.O. AUDUBON     N/A     61  54  78 MISG        N/A
N.O. INTL ARPT MOSUNNY   59  52  77 E7        30.21S
N.O. LAKEFRONT MOSUNNY   59  52  77 E12       30.23R
N.O. DOWNTOWN* FAIR      57  48  72 NE5       30.23R
SLIDELL        SUNNY     54  48  80 E5        30.23S
BATON ROUGE    MOSUNNY   55  49  80 E9        30.21F
BOOTHVILLE     SUNNY     65  60  84 E7        30.21R
BELLE CHASSE   PTSUNNY   59  53  80 E8        30.22R
BOGALUSA*        N/A     52  47  84 CALM      30.27S
NEW ROADS*     FAIR      57  49  74 E9        30.20F
GONZALES*      CLOUDY    57  54  89 E5        30.20S
HAMMOND*       MOSUNNY   55  46  71 E7        30.24S
HOUMA*         NOT AVBL
PORT FOURCHON* SUNNY     63  59  88 NE7       30.22S

$$

LAZ041-044-053-054-221500-
SOUTHWEST LOUISIANA

CITY           SKY/WX    TMP DP  RH WIND       PRES   REMARKS
LAKE CHARLES   PTSUNNY   56  52  86 E6        30.15R
LAFAYETTE      CLOUDY    58  52  80 E5        30.18F
PATTERSON      MOSUNNY   59  54  82 E13       30.20F
SALT POINT       N/A     61  55  81 VRB5      30.15F
NEW IBERIA     CLOUDY    60  53  77 E9        30.18F
CHENAULT AIRPK MOSUNNY   55  52  88 E8        30.15S

$$

LAZ027-028-221500-
CENTRAL LOUISIANA

CITY           SKY/WX    TMP DP  RH WIND       PRES   REMARKS
FORT POLK      MOSUNNY   57  52  82 SE10G17   30.15F
ALEXANDRIA INT MOSUNNY   56  50  80 E10       30.16F
ALEXANDRIA     MOSUNNY   55  50  83 E6        30.18F

$$

LAZ001-002-221500-
NORTHWEST LOUISIANA

CITY           SKY/WX    TMP DP  RH WIND       PRES   REMARKS
SHREVEPORT     PTSUNNY   57  52  83 SE12      30.15R
BARKSDALE AFB  CLOUDY    58  51  78 SE13      30.16R
DTN SHREVEPORT PTSUNNY   57  50  77 SE12      30.16R

$$

LAZ014-016-221500-
NORTHEAST LOUISIANA

CITY           SKY/WX    TMP DP  RH WIND       PRES   REMARKS
MONROE         PTSUNNY   57  49  74 E5        30.22F
TALLULAH       PTSUNNY   56  46  69 SE5       30.25S

$$



USA.gov is the U.S. government's official web portal to all federal, state and local government web resources and services.